Flag for Australia Weather past 2 weeks in Mandurah, Western Australia, Australia

Now
62 °F

Refreshingly cool.


Feels Like: 62 °F
Forecast: 51 / 62 °F
Wind: 13 mph from Southwest

Location: Mandurah Aws

Current Time: Sep 5, 2015 at 12:50:08 PM

Latest Report: Sep 5, 2015 at 12:00 PM


Visibility: N/A

Pressure: 30.16 "Hg

Humidity: 51%

Dew point: 44 °F

Location of MandurahLocation

Historic Weather in Mandurah — Graph

°F

Mandurah temperature yesterday

Maximum temperature yesterday: 65 °F (at 12:00 PM)
Minimum temperature yesterday: 51 °F (at 2:00 AM)
Average temperature yesterday: 59 °F

Past Weeks' High & Low Weather Summary

 TemperatureHumidityPressure
High78 °F (Aug 27, 2:00 PM)100% (Aug 28, 3:00 AM)30.45 "Hg (Aug 28, 3:00 AM)
Low44 °F (Sep 2, 3:00 AM)24% (Aug 27, 2:00 PM)29.81 "Hg (Aug 21, 2:00 PM)
Average58 °F70%30.13 "Hg
* Reported Aug 21 11:00 AM — Sep 5 11:00 AM, Mandurah, Weather by CustomWeather, © 2015

Note: Actual official high and low records may vary slightly from our data, if they occured in-between our weather recording intervals... More about our weather records

Advertising

Mandurah weather history for previous 24 hours

 ConditionsComfort  
Time TempWeatherWind HumidityBarometerVisibility
11:00 AM
Sat, Sep 5
64 °FMild.14 mph57%30.16 "HgN/A
9:00 AM63 °FMild.13 mph66%30.13 "HgN/A
8:00 AM62 °FCool.12 mph68%30.11 "HgN/A
6:00 AM60 °FCool.13 mph66%30.06 "HgN/A
5:00 AM60 °FCool.10 mph68%30.05 "HgN/A
3:00 AM61 °FCool.10 mph67%30.02 "HgN/A
2:00 AM61 °FCool.10 mph72%30.02 "HgN/A
12:00 AM62 °FCool.12 mph84%30.01 "HgN/A
11:00 PM
Fri, Sep 4
62 °FCool.6 mph79%30.01 "HgN/A
9:00 PM60 °FCool.7 mph92%30.02 "HgN/A
8:00 PM62 °FCool.13 mph100%30.03 "HgN/A
6:00 PM63 °FMild.17 mph87%29.98 "HgN/A
5:00 PM63 °FMild.16 mph80%29.97 "HgN/A
3:00 PM64 °FMild.15 mph74%29.97 "HgN/A
2:00 PM64 °FMild.14 mph67%29.99 "HgN/A
12:00 PM65 °FMild.14 mph61%30.02 "HgN/A
Weather by CustomWeather, © 2015

See weather overviewHow to use our weather pages